QPF
0.01 0.05 0.04 0.05 0.02 0.00 0.03 0.03 0.02 0.03 0.01 0.01 0.00 0.00 0.00 0.00 0.00 0.00 0.00 0.00 0.00 0.00 0.00 0.00 0.00 0.00 0.00 0.00 0.00 0.00 0.00 0.00 0.00 0.00 0.00 0.00 0.00 0.00
0.02 0.03 0.06 0.08 0.09 0.01 0.06 0.07 0.06 0.02 0.05 0.04 0.01 0.00 0.00 0.00 0.00 0.00 0.00 0.00 0.00 0.00 0.00 0.00 0.00 0.00 0.00 0.00 0.00 0.00 0.00 0.00 0.00 0.00 0.00 0.00 0.00 0.00
0.04 0.02 0.00 0.05 0.07 0.06 0.07 0.07 0.07 0.04 0.03 0.06 0.04 0.01 0.00 0.00 0.00 0.00 0.00 0.00 0.00 0.00 0.00 0.00 0.00 0.00 0.00 0.00 0.00 0.00 0.00 0.00 0.00 0.00 0.00 0.00 0.00 0.00
0.05 0.02 0.00 0.02 0.02 0.04 0.09 0.09 0.05 0.04 0.01 0.02 0.02 0.01 0.02 0.01 0.00 0.00 0.00 0.00 0.00 0.00 0.00 0.00 0.00 0.00 0.00 0.00 0.00 0.00 0.00 0.00 0.00 0.00 0.00 0.00 0.00 0.00
0.00 0.00 0.03 0.04 0.02 0.07 0.07 0.06 0.01 0.01 0.02 0.00 0.00 0.01 0.06 0.05 0.02 0.02 0.00 0.00 0.00 0.00 0.00 0.00 0.00 0.00 0.00 0.00 0.00 0.00 0.00 0.00 0.00 0.00 0.00 0.00 0.00 0.00
0.00 0.00 0.00 0.00 0.01 0.03 0.05 0.05 0.03 0.02 0.08 0.06 0.02 0.01 0.04 0.11 0.08 0.05 0.02 0.00 0.00 0.00 0.00 0.00 0.00 0.00 0.00 0.00 0.00 0.00 0.00 0.00 0.00 0.00 0.00 0.00 0.00 0.00
0.00 0.00 0.00 0.00 0.06 0.05 0.05 0.06 0.07 0.05 0.07 0.05 0.02 0.03 0.01 0.01 0.03 0.04 0.07 0.14 0.10 0.06 0.06 0.05 0.04 0.01 0.00 0.00 0.00 0.00 0.00 0.00 0.00 0.00 0.00 0.00 0.00 0.00
0.00 0.00 0.00 0.00 0.02 0.08 0.11 0.08 0.06 0.03 0.01 0.01 0.00 0.03 0.05 0.02 0.01 0.06 0.13 0.22 0.10 0.04 0.07 0.04 0.09 0.05 0.07 0.07 0.06 0.01 0.00 0.00 0.00 0.00 0.00 0.00 0.00 0.00
0.00 0.00 0.00 0.00 0.00 0.00 0.06 0.08 0.04 0.02 0.01 0.00 0.00 0.00 0.02 0.09 0.03 0.04 0.07 0.07 0.02 0.08 0.16 0.16 0.17 0.10 0.16 0.17 0.16 0.12 0.05 0.01 0.00 0.00 0.00 0.01 0.01 0.01
0.02 0.00 0.00 0.00 0.00 0.00 0.00 0.00 0.00 0.02 0.02 0.01 0.00 0.00 0.00 0.02 0.05 0.12 0.14 0.10 0.02 0.01 0.02 0.03 0.03 0.00 0.03 0.10 0.14 0.11 0.07 0.09 0.05 0.01 0.00 0.00 0.01 0.00
0.01 0.00 0.00 0.00 0.00 0.00 0.00 0.00 0.00 0.00 0.00 0.00 0.00 0.00 0.01 0.01 0.05 0.13 0.15 0.11 0.04 0.01 0.02 0.08 0.07 0.09 0.09 0.03 0.09 0.09 0.03 0.05 0.06 0.04 0.01 0.01 0.01 0.00
0.00 0.00 0.00 0.00 0.00 0.00 0.00 0.00 0.00 0.00 0.00 0.00 0.01 0.01 0.01 0.00 0.00 0.05 0.13 0.07 0.06 0.05 0.06 0.07 0.05 0.07 0.07 0.06 0.06 0.05 0.07 0.13 0.07 0.02 0.01 0.00 0.00 0.00
0.00 0.00 0.00 0.02 0.03 0.00 0.00 0.00 0.00 0.00 0.00 0.00 0.00 0.00 0.00 0.00 0.00 0.00 0.00 0.01 0.04 0.02 0.06 0.05 0.02 0.01 0.00 0.04 0.10 0.08 0.07 0.10 0.04 0.01 0.00 0.00 0.00 0.00
0.00 0.02 0.06 0.04 0.05 0.05 0.01 0.00 0.00 0.00 0.00 0.00 0.00 0.00 0.00 0.00 0.00 0.00 0.00 0.00 0.00 0.00 0.03 0.06 0.09 0.07 0.09 0.10 0.10 0.08 0.05 0.04 0.01 0.00 0.00 0.00 0.00 0.00
0.02 0.06 0.10 0.16 0.26 0.13 0.17 0.08 0.01 0.00 0.00 0.00 0.00 0.00 0.00 0.00 0.00 0.00 0.00 0.00 0.00 0.00 0.00 0.00 0.00 0.00 0.01 0.00 0.01 0.00 0.00 0.00 0.00 0.00 0.00 0.00 0.00 0.00
0.02 0.01 0.01 0.01 0.05 0.09 0.13 0.10 0.06 0.01 0.00 0.00 0.00 0.00 0.00 0.00 0.00 0.00 0.00 0.00 0.00 0.00 0.00 0.00 0.00 0.00 0.00 0.00 0.00 0.00 0.00 0.00 0.00 0.00 0.00 0.00 0.00 0.00
0.11 0.03 0.00 0.00 0.00 0.02 0.07 0.10 0.08 0.03 0.01 0.00 0.00 0.00 0.00 0.00 0.00 0.00 0.00 0.00 0.00 0.00 0.00 0.00 0.00 0.00 0.00 0.00 0.00 0.00 0.00 0.00 0.00 0.00 0.00 0.00 0.00 0.00
0.03 0.02 0.01 0.01 0.01 0.00 0.01 0.01 0.01 0.00 0.00 0.01 0.00 0.00 0.00 0.00 0.00 0.00 0.00 0.00 0.00 0.00 0.00 0.00 0.00 0.00 0.00 0.00 0.00 0.00 0.00 0.00 0.00 0.00 0.00 0.00 0.00 0.00
0.01 0.02 0.02 0.01 0.00 0.00 0.00 0.00 0.00 0.00 0.00 0.00 0.00 0.00 0.00 0.00 0.00 0.00 0.00 0.00 0.00 0.00 0.00 0.00 0.00 0.00 0.00 0.00 0.00 0.00 0.00 0.00 0.00 0.00 0.00 0.00 0.00 0.00
0.04 0.03 0.00 0.00 0.00 0.00 0.00 0.00 0.00 0.01 0.00 0.00 0.00 0.00 0.00 0.00 0.00 0.00 0.00 0.00 0.02 0.01 0.00 0.00 0.00 0.00 0.00 0.00 0.00 0.00 0.00 0.00 0.00 0.00 0.00 0.00 0.00 0.00
0.00 0.00 0.00 0.00 0.00 0.00 0.01 0.01 0.00 0.00 0.00 0.00 0.00 0.00 0.00 0.00 0.00 0.00 0.00 0.00 0.01 0.01 0.00 0.00 0.00 0.00 0.00 0.00 0.00 0.00 0.00 0.00 0.00 0.00 0.00 0.00 0.00 0.00
0.00 0.00 0.00 0.00 0.00 0.01 0.01 0.00 0.00 0.00 0.00 0.00 0.00 0.00 0.00 0.00 0.00 0.00 0.00 0.00 0.00 0.00 0.00 0.00 0.00 0.00 0.00 0.00 0.00 0.00 0.00 0.00 0.00 0.00 0.00 0.00 0.00 0.00
0.00 0.00 0.00 0.00 0.00 0.00 0.00 0.00 0.00 0.00 0.00 0.00 0.00 0.00 0.00 0.00 0.00 0.00 0.00 0.00 0.00 0.00 0.00 0.00 0.00 0.00 0.00 0.00 0.00 0.00 0.00 0.00 0.00 0.00 0.00 0.00 0.00 0.00
MSLP
1015.53 1015.66 1015.93 1015.87 1016.05 1016.22 1016.47 1016.68 1017.11 1017.21 1017.01 1016.61 1016.57 1016.33 1016.73 1017.03 1017.40 1017.85 1018.33 1018.71 1019.29 1019.73 1020.18 1020.61 1021.09 1021.57 1021.94 1022.28 1022.49 1022.77 1023.02 1023.22 1023.39 1023.57 1023.73 1023.75 1023.82 1023.90
1015.13 1015.23 1015.34 1015.16 1015.24 1015.31 1015.50 1015.76 1016.23 1016.26 1016.32 1016.01 1015.95 1015.73 1015.94 1016.32 1016.63 1017.05 1017.48 1017.89 1018.41 1018.96 1019.44 1019.86 1020.27 1020.75 1021.25 1021.63 1021.93 1022.12 1022.33 1022.59 1022.84 1023.06 1023.25 1023.28 1023.35 1023.34
1014.79 1014.74 1014.44 1014.28 1014.38 1014.47 1014.72 1014.96 1015.30 1015.47 1015.77 1015.82 1015.75 1015.60 1015.66 1015.84 1016.09 1016.33 1016.73 1017.11 1017.58 1018.11 1018.53 1018.96 1019.39 1019.84 1020.32 1020.78 1021.18 1021.53 1021.81 1022.07 1022.35 1022.62 1022.73 1022.78 1022.80 1022.73
1014.12 1014.14 1013.83 1013.77 1013.60 1013.60 1013.78 1013.91 1014.22 1014.64 1015.20 1015.54 1015.48 1015.44 1015.46 1015.51 1015.47 1015.90 1016.00 1016.32 1016.77 1017.23 1017.77 1018.16 1018.52 1019.03 1019.48 1019.99 1020.42 1020.69 1020.97 1021.35 1021.72 1021.97 1022.16 1022.11 1022.27 1022.26
1013.52 1013.43 1013.34 1013.32 1013.12 1013.01 1013.02 1013.24 1013.36 1013.86 1014.53 1014.91 1014.90 1015.23 1015.09 1015.23 1015.53 1015.61 1015.64 1015.74 1016.00 1016.23 1016.80 1017.28 1017.66 1018.09 1018.54 1019.01 1019.41 1019.81 1020.25 1020.57 1020.97 1021.29 1021.48 1021.59 1021.59 1021.66
1013.06 1013.06 1012.92 1012.73 1012.44 1012.32 1012.44 1012.53 1012.71 1013.20 1013.85 1014.33 1014.76 1014.78 1014.73 1014.93 1015.24 1015.46 1015.48 1015.42 1015.68 1015.80 1016.19 1016.58 1017.08 1017.51 1017.84 1018.28 1018.82 1019.27 1019.68 1019.99 1020.17 1020.37 1020.59 1020.79 1020.95 1021.06
1013.04 1012.97 1012.76 1012.47 1011.96 1011.61 1011.83 1012.13 1012.44 1012.88 1013.38 1014.03 1014.35 1014.28 1014.42 1014.64 1014.65 1014.57 1014.95 1015.42 1015.48 1015.65 1015.96 1016.17 1016.61 1017.03 1017.40 1017.83 1018.09 1018.44 1018.76 1019.09 1019.40 1019.70 1019.92 1020.06 1020.25 1020.42
1013.00 1012.94 1012.84 1012.48 1012.26 1012.03 1011.90 1011.92 1012.12 1012.43 1013.03 1013.55 1013.80 1013.86 1013.85 1013.77 1013.94 1014.22 1014.68 1015.34 1015.68 1015.04 1015.63 1015.84 1016.23 1016.61 1016.61 1016.91 1017.09 1017.37 1017.65 1018.10 1018.66 1019.02 1019.32 1019.46 1019.61 1019.76
1012.55 1012.69 1012.69 1012.47 1012.50 1012.44 1012.53 1012.67 1012.63 1012.61 1012.60 1012.75 1013.03 1013.15 1013.29 1013.46 1013.76 1013.94 1014.34 1014.75 1014.62 1014.57 1015.06 1015.64 1016.09 1016.20 1015.84 1016.18 1016.41 1016.77 1017.03 1017.39 1017.71 1018.10 1018.43 1018.69 1018.88 1019.10
1012.28 1012.33 1012.45 1012.49 1012.47 1012.55 1012.73 1012.95 1013.06 1012.91 1012.80 1012.79 1012.78 1012.77 1012.93 1013.00 1013.42 1013.60 1013.78 1013.98 1014.29 1014.33 1014.42 1015.17 1015.36 1015.35 1015.33 1015.64 1015.86 1015.93 1016.37 1016.83 1017.10 1017.53 1017.84 1018.15 1018.67 1018.86
1012.10 1012.22 1012.27 1012.30 1012.44 1012.52 1012.66 1012.84 1012.90 1012.91 1012.76 1012.88 1012.89 1012.81 1012.86 1013.00 1013.03 1013.49 1013.72 1014.05 1014.16 1013.86 1013.89 1014.55 1015.00 1015.38 1015.62 1015.48 1015.57 1015.78 1015.96 1016.40 1016.86 1017.16 1017.59 1018.04 1018.47 1018.83
1011.58 1011.74 1012.03 1012.03 1012.02 1012.22 1012.48 1012.61 1012.79 1012.48 1012.41 1012.58 1012.78 1012.95 1012.98 1013.17 1013.19 1013.23 1013.21 1013.34 1013.44 1013.63 1013.37 1014.02 1014.54 1014.96 1015.55 1015.52 1015.65 1015.92 1016.11 1016.60 1017.16 1017.14 1017.46 1017.76 1018.12 1018.49
1011.17 1011.23 1011.19 1011.52 1011.80 1011.77 1011.89 1012.12 1012.22 1012.23 1012.32 1012.20 1012.37 1012.60 1012.82 1012.91 1013.07 1013.02 1012.93 1012.86 1012.86 1012.69 1012.60 1013.05 1013.75 1014.19 1014.53 1015.31 1015.84 1016.09 1016.02 1016.59 1016.96 1017.01 1017.41 1017.61 1017.88 1018.15
1010.73 1010.67 1010.69 1010.65 1010.92 1011.25 1011.60 1011.70 1011.82 1011.91 1012.16 1012.45 1012.63 1012.59 1012.60 1012.48 1012.36 1012.44 1012.44 1012.46 1012.39 1012.31 1012.15 1012.62 1013.15 1013.49 1013.99 1015.11 1015.61 1015.69 1015.99 1016.36 1016.69 1016.85 1017.25 1017.60 1017.91 1018.13
1010.60 1010.46 1010.42 1010.64 1010.47 1010.67 1010.93 1011.16 1011.45 1011.88 1012.23 1012.33 1012.29 1012.45 1012.49 1012.16 1012.07 1011.90 1011.78 1012.17 1012.30 1012.22 1012.15 1012.12 1012.32 1012.83 1013.34 1013.77 1014.48 1015.06 1015.90 1016.07 1016.25 1016.55 1016.92 1017.21 1017.47 1017.86
1009.91 1010.21 1010.50 1010.31 1010.40 1010.66 1010.93 1011.02 1011.26 1011.53 1011.79 1011.95 1012.02 1011.88 1011.86 1011.94 1011.94 1011.83 1011.98 1012.20 1012.58 1012.77 1012.52 1012.27 1012.07 1012.49 1012.89 1013.17 1013.44 1014.18 1014.65 1015.32 1015.65 1016.13 1016.34 1016.67 1017.07 1017.28
1009.63 1010.01 1010.36 1010.13 1010.25 1010.52 1010.78 1010.85 1011.06 1011.44 1011.66 1011.60 1011.82 1011.90 1011.98 1011.90 1011.52 1011.26 1011.59 1011.98 1012.22 1012.42 1012.64 1012.70 1012.49 1012.37 1012.56 1012.77 1013.26 1013.61 1014.08 1014.59 1014.66 1015.30 1016.22 1016.59 1016.53 1016.56
1009.64 1009.82 1009.57 1009.49 1009.71 1009.86 1010.31 1010.54 1010.69 1010.91 1011.01 1011.20 1011.34 1011.38 1011.51 1011.59 1011.42 1011.36 1011.47 1011.67 1012.01 1012.29 1012.50 1012.66 1012.87 1013.02 1013.00 1012.74 1012.65 1013.10 1013.64 1014.03 1014.18 1014.68 1015.16 1015.94 1016.09 1015.97
1008.92 1008.87 1008.86 1008.79 1008.84 1009.25 1009.48 1009.73 1009.93 1010.05 1010.10 1010.64 1010.86 1010.92 1010.98 1011.07 1011.04 1011.06 1011.16 1011.46 1011.79 1011.78 1011.85 1012.20 1012.64 1012.98 1013.23 1013.07 1012.59 1012.43 1012.91 1013.35 1013.78 1014.32 1014.54 1014.91 1015.10 1015.14
1008.69 1008.34 1008.11 1008.51 1008.57 1008.67 1008.84 1009.02 1009.13 1009.42 1009.73 1009.86 1010.16 1010.46 1010.70 1010.67 1010.64 1010.71 1010.84 1010.95 1011.17 1011.41 1011.59 1011.90 1012.09 1012.20 1012.42 1012.54 1012.42 1012.05 1012.04 1012.50 1012.95 1013.38 1013.95 1014.37 1014.65 1014.49
1008.13 1007.85 1007.85 1008.10 1008.16 1008.21 1008.42 1008.70 1008.79 1008.94 1009.04 1009.20 1009.38 1009.66 1009.97 1010.28 1010.45 1010.55 1010.64 1010.72 1010.78 1011.06 1011.18 1011.30 1011.02 1011.09 1011.56 1011.88 1012.34 1012.22 1011.94 1011.89 1011.80 1012.17 1012.88 1013.74 1014.45 1014.69
1007.88 1007.84 1007.70 1007.73 1007.82 1007.95 1008.23 1008.41 1008.69 1008.90 1008.94 1008.99 1009.22 1009.27 1009.62 1009.86 1010.06 1010.26 1010.51 1010.59 1010.62 1010.69 1010.62 1010.51 1010.57 1011.02 1011.65 1011.86 1011.93 1012.14 1012.10 1012.27 1012.23 1011.92 1011.57 1011.84 1012.63 1013.33
1007.88 1007.78 1007.82 1007.90 1008.09 1008.22 1008.22 1008.35 1008.54 1008.55 1008.53 1008.76 1008.92 1009.15 1009.62 1009.82 1009.92 1010.06 1010.29 1010.51 1010.63 1010.61 1010.59 1010.69 1010.73 1010.85 1010.89 1011.15 1011.38 1011.67 1011.94 1012.17 1012.27 1012.17 1011.93 1011.87 1011.74 1011.55
Thickness
5758 5757 5756 5758 5759 5758 5756 5753 5748 5744 5749 5758 5760 5765 5763 5763 5763 5760 5758 5758 5755 5753 5751 5749 5747 5745 5743 5742 5742 5742 5741 5740 5740 5740 5739 5740 5740 5740
5758 5758 5758 5762 5762 5762 5760 5758 5756 5755 5752 5761 5763 5767 5766 5765 5764 5763 5761 5760 5759 5757 5755 5753 5752 5750 5746 5744 5743 5744 5744 5744 5743 5742 5742 5743 5743 5743
5757 5758 5761 5765 5765 5766 5763 5762 5759 5759 5754 5757 5760 5764 5766 5767 5765 5765 5763 5762 5761 5761 5760 5758 5757 5755 5753 5750 5748 5747 5745 5744 5744 5743 5743 5743 5744 5746
5757 5756 5759 5764 5766 5768 5768 5766 5765 5761 5754 5750 5757 5761 5763 5767 5769 5766 5765 5763 5762 5761 5760 5760 5760 5757 5755 5752 5750 5751 5750 5748 5746 5744 5743 5743 5743 5745
5759 5759 5759 5760 5763 5765 5767 5766 5765 5759 5755 5753 5753 5757 5761 5762 5761 5764 5764 5764 5763 5763 5762 5761 5761 5760 5758 5756 5755 5753 5751 5750 5747 5745 5744 5744 5744 5745
5759 5759 5760 5761 5763 5766 5765 5765 5764 5760 5755 5753 5752 5753 5756 5757 5759 5757 5758 5763 5761 5761 5761 5761 5759 5759 5758 5756 5753 5750 5748 5747 5747 5747 5746 5745 5745 5745
5757 5758 5760 5761 5764 5767 5765 5763 5761 5756 5752 5749 5750 5753 5752 5752 5755 5758 5757 5755 5755 5759 5758 5759 5757 5756 5755 5753 5752 5750 5749 5748 5747 5747 5747 5748 5746 5745
5753 5754 5754 5757 5759 5760 5760 5761 5760 5755 5751 5749 5749 5749 5751 5753 5754 5755 5751 5745 5740 5757 5753 5754 5753 5752 5753 5754 5752 5752 5752 5750 5746 5745 5745 5746 5746 5745
5753 5751 5751 5754 5753 5753 5752 5750 5750 5751 5751 5751 5748 5750 5751 5751 5751 5749 5747 5744 5748 5752 5751 5746 5748 5749 5753 5752 5751 5749 5749 5749 5748 5747 5745 5745 5745 5745
5748 5748 5748 5748 5749 5748 5746 5744 5742 5743 5744 5745 5746 5747 5747 5749 5747 5746 5743 5747 5748 5752 5752 5739 5746 5748 5751 5749 5748 5747 5744 5741 5746 5745 5744 5742 5739 5739
5745 5743 5742 5743 5744 5744 5742 5739 5738 5737 5738 5738 5738 5740 5739 5740 5742 5742 5739 5738 5738 5744 5748 5742 5741 5740 5741 5743 5743 5742 5743 5742 5741 5741 5738 5735 5733 5731
5741 5741 5739 5740 5740 5740 5738 5736 5733 5735 5737 5736 5735 5734 5732 5730 5733 5736 5739 5738 5738 5734 5744 5738 5737 5737 5732 5737 5736 5735 5735 5732 5726 5731 5731 5730 5729 5727
5737 5736 5738 5736 5736 5737 5737 5734 5733 5733 5733 5734 5732 5730 5728 5727 5729 5730 5734 5736 5734 5737 5743 5741 5737 5735 5734 5728 5726 5726 5727 5724 5723 5724 5723 5723 5723 5721
5735 5736 5736 5735 5735 5733 5732 5731 5730 5729 5727 5726 5724 5724 5723 5725 5728 5729 5729 5732 5734 5736 5740 5738 5734 5733 5730 5721 5719 5718 5719 5718 5718 5716 5714 5713 5713 5712
5731 5731 5731 5728 5731 5730 5729 5728 5724 5721 5720 5718 5718 5717 5718 5722 5724 5726 5728 5726 5725 5727 5730 5733 5734 5730 5729 5727 5723 5718 5713 5714 5712 5711 5707 5706 5706 5705
5723 5722 5719 5722 5723 5722 5720 5720 5718 5715 5714 5713 5714 5716 5716 5716 5717 5718 5717 5715 5713 5713 5717 5720 5723 5722 5720 5721 5722 5716 5714 5710 5708 5703 5701 5700 5697 5696
5716 5714 5710 5713 5713 5712 5712 5712 5710 5706 5704 5705 5702 5703 5705 5709 5713 5716 5714 5709 5708 5706 5705 5707 5710 5713 5714 5714 5711 5710 5708 5705 5706 5699 5691 5688 5689 5689
5706 5703 5705 5707 5707 5708 5706 5704 5705 5703 5700 5697 5695 5695 5697 5699 5702 5704 5704 5703 5700 5697 5696 5697 5697 5697 5697 5701 5705 5700 5699 5698 5696 5691 5688 5681 5678 5678
5704 5702 5699 5700 5703 5703 5701 5703 5700 5698 5699 5693 5689 5689 5690 5692 5694 5695 5695 5694 5691 5692 5692 5690 5688 5685 5680 5678 5689 5693 5691 5688 5684 5680 5679 5676 5674 5673
5698 5699 5701 5695 5696 5700 5701 5699 5698 5695 5692 5690 5686 5683 5681 5682 5684 5686 5684 5684 5683 5680 5679 5678 5676 5673 5671 5669 5671 5680 5680 5675 5675 5675 5669 5664 5664 5663
5697 5699 5698 5695 5695 5697 5695 5693 5692 5691 5689 5685 5682 5680 5677 5674 5673 5672 5672 5673 5672 5669 5667 5667 5671 5670 5666 5663 5658 5660 5664 5665 5668 5667 5662 5655 5648 5644
5694 5692 5692 5690 5690 5689 5687 5685 5682 5679 5679 5677 5674 5673 5670 5667 5666 5665 5663 5662 5662 5660 5660 5661 5659 5656 5650 5648 5646 5646 5647 5648 5650 5654 5657 5656 5648 5636
5684 5684 5683 5682 5679 5677 5677 5676 5673 5674 5674 5670 5668 5666 5660 5658 5658 5656 5654 5650 5649 5647 5646 5645 5644 5642 5645 5643 5639 5636 5635 5634 5634 5636 5640 5639 5640 5642